Location: Unspecified
(0.0000°N, 0.0000°E)
Time: 13:24:49
(UTC+00:00)

HST - Visible Passes

Search period start: 16 September 2014 00:00
Search period end: 26 September 2014 00:00
Orbit: 547 x 551 km, 28.5° (Epoch: 16 September)

Date Brightness Start Highest point End Pass type
(mag) Time Alt. Az. Time Alt. Az. Time Alt. Az.
19 Sep 3.0 19:08:19 10° N 19:09:45 13° NNE 19:09:45 13° NNE visible
20 Sep 2.5 19:00:20 10° NNW 19:03:14 18° NNE 19:03:27 18° NNE visible
21 Sep 2.0 18:52:45 10° NNW 18:56:15 26° NNE 18:57:13 24° NE visible
22 Sep 1.5 18:45:21 10° NW 18:49:15 38° NNE 18:51:04 25° E visible
23 Sep 0.9 18:38:06 10° NW 18:42:13 58° NNE 18:44:58 20° ESE visible
23 Sep 4.1 20:20:22 10° W 20:20:34 11° WSW 20:20:34 11° WSW visible
24 Sep 3.5 04:55:17 10° S 04:57:12 13° SSE 04:59:08 10° SE visible
24 Sep 0.8 18:31:00 10° WNW 18:35:11 90° NNE 18:38:54 13° ESE visible
24 Sep 3.9 20:14:09 10° WSW 20:14:30 11° WSW 20:14:30 11° WSW visible
25 Sep 3.2 04:47:19 10° SSW 04:50:14 18° SSE 04:53:10 10° ESE visible
25 Sep 1.3 18:24:01 10° WNW 18:28:08 59° SSW 18:32:16 10° SE visible
